Simultaneous Nadir Overpasses (SNOs) Predictions

Prediction of SNOs between LANDSAT-8 and NPP Satellite Orbit:

Table of predicted SNOs for the next 14.0 days since TLE Epoch: 10/10/2020
Index Date (LANDSAT-8) Time (LANDSAT-8) Lat,Lon (LANDSAT-8) SZA (LANDSAT-8 ) Date (NPP) Time (NPP) Lat,Lon (NPP) SZA (NPP ) Distance(km) Time Diff (sec)
1 10/10/2020 14:42:14 -70.19, 136.10 102.95 10/10/2020 14:41:00 -70.23, 135.96 102.91 7.02 74
2 10/10/2020 15:31:42 70.04, -56.48 76.91 10/10/2020 15:31:43 70.07, -56.48 76.94 3.59 1
3 10/10/2020 16:21:12 -69.92, 111.00 103.19 10/10/2020 16:22:24 -69.92, 111.06 103.19 2.14 72
4 10/13/2020 06:58:45 -70.10,-108.15 102.04 10/13/2020 06:57:52 -70.12,-108.10 102.02 3.10 53
5 10/13/2020 07:48:12 69.99, 59.34 77.87 10/13/2020 07:48:36 70.01, 59.38 77.89 2.27 24
6 10/13/2020 08:37:56 -69.11,-134.21 103.00 10/13/2020 08:39:03 -69.12,-132.02 102.99 86.89 67
7 10/15/2020 23:15:14 -70.11, 7.75 101.04 10/15/2020 23:14:46 -70.12, 7.67 101.03 2.86 28
8 10/16/2020 00:04:42 69.95, 175.16 78.82 10/16/2020 00:05:29 69.96, 175.23 78.83 2.81 47
9 10/18/2020 14:42:11 70.28, -43.77 80.10 10/18/2020 14:40:59 70.32, -44.19 80.14 16.45 72
10 10/18/2020 15:31:43 -70.06, 123.56 100.11 10/18/2020 15:31:38 -70.07, 123.52 100.11 1.32 5
11 10/18/2020 16:21:10 69.95, -68.95 79.80 10/18/2020 16:22:22 69.96, -69.00 79.80 2.06 72
12 10/21/2020 06:58:43 70.11, 71.88 80.89 10/21/2020 06:57:49 70.11, 71.90 80.89 1.06 54
13 10/21/2020 07:48:13 -70.01,-120.64 99.21 10/21/2020 07:48:31 -70.01,-120.63 99.20 0.70 18
14 10/21/2020 08:37:54 69.12, 45.81 79.92 10/21/2020 08:39:00 69.11, 47.99 79.92 86.44 66
15 10/23/2020 23:15:13 70.05,-172.33 81.77 10/23/2020 23:14:42 70.07,-172.26 81.79 3.20 31
16 10/24/2020 00:04:43 -69.95, -4.84 98.32 10/24/2020 00:05:24 -69.97, -4.79 98.31 2.60 41
